Location: Borovka
(49.7741°N, 14.5280°E)
Time: 16:34:16
(UTC+00:00)

Cosmos 1763 Rocket - Pass Details

Date: 17 November 2025
Orbit: 728 x 774 km, 74.0° (Epoch: 12 December)

Event Time Altitude Azimuth Distance (km) Brightness Sun altitude
Rises 15:46:08 0° 339° (NNW) 3,246 6.7 -5.2°
Reaches altitude 10° 15:48:39 10° 346° (NNW) 2,310 5.9 -5.6°
Maximum altitude 15:53:38 44° 58° (ENE) 1,050 3.8 -6.3°
Drops below altitude 10° 15:58:33 10° 131° (SE) 2,267 5.7 -7.0°
Sets 16:00:59 0° 138° (SE) 3,179 6.5 -7.4°
